Home   Weather   Salinas   Past weeks

Flag for USA Past Weather in Salinas, California, USA — Yesterday and Last 2 Weeks

Now
72 °F

Sunny.


Feels Like: 77 °F
Forecast: 52 / 80 °F
Wind: 10 mph from Southwest

Location: Salinas Municipal Airport

Current Time: Apr 30, 2017 at 7:43:33 pm

Latest Report: Apr 30, 2017 at 6:53 pm


Visibility: 10 mi

Pressure: 30.07 "Hg

Humidity: 40%

Dew Point: 46 °F

Location of SalinasLocation

Past Weather in Salinas — Graph

°F

Salinas Temperature Yesterday

Maximum temperature yesterday: 78 °F (at 12:53 pm)
Minimum temperature yesterday: 46 °F (at 6:53 am)
Average temperature yesterday: 61 °F

High & Low Weather Summary for the Past Weeks

 TemperatureHumidityPressure
High78 °F (Apr 29, 12:53 pm)100% (Apr 19, 7:07 am)30.32 "Hg (Apr 19, 7:07 am)
Low45 °F (Apr 19, 7:07 am)19% (Apr 29, 12:53 pm)29.96 "Hg (Apr 16, 4:53 am)
Average58 °F74%30.10 "Hg
* Reported Apr 15 5:53 pm — Apr 30 5:53 pm, Salinas, Weather by CustomWeather, © 2017

Note: Actual official high and low records may vary slightly from our data, if they occured in-between our weather recording intervals... More about our weather records

Advertising

Salinas Weather History for the Previous 24 Hours

Scroll right to see more
 ConditionsComfort  
Time TempWeatherWind HumidityBarometerVisibility
5:53 pm
Sun, Apr 30
71 °FSunny.8 mph42%30.09 "Hg10 mi
4:53 pm71 °FSunny.13 mph44%30.10 "Hg10 mi
3:53 pm72 °FSunny.14 mph38%30.11 "Hg10 mi
2:53 pm71 °FSunny.16 mph41%30.12 "Hg10 mi
1:53 pm73 °FSunny.15 mph48%30.12 "Hg10 mi
12:53 pm73 °FSunny.13 mph48%30.13 "Hg10 mi
11:53 am72 °FSunny.No wind37%30.15 "Hg10 mi
10:53 am67 °FSunny.No wind44%30.16 "Hg10 mi
9:53 am62 °FSunny.6 mph52%30.17 "Hg10 mi
8:53 am57 °FSunny.5 mph62%30.18 "Hg10 mi
7:53 am51 °FSunny.No wind83%30.18 "Hg8 mi
6:53 am48 °FSunny.No wind86%30.17 "Hg7 mi
5:53 am47 °FClear.5 mph86%30.15 "Hg10 mi
4:53 am47 °FClear.5 mph90%30.15 "Hg8 mi
3:53 am48 °FClear.3 mph89%30.16 "Hg8 mi
2:53 am52 °FClear.5 mph86%30.15 "Hg8 mi
1:53 am53 °FClear.3 mph83%30.15 "Hg8 mi
12:53 am54 °FClear.5 mph77%30.16 "Hg9 mi
11:53 pm
Sat, Apr 29
55 °FClear.5 mph77%30.16 "Hg8 mi
10:53 pm57 °FClear.7 mph72%30.15 "Hg9 mi
9:53 pm58 °FClear.7 mph70%30.15 "Hg9 mi
8:53 pm59 °FClear.10 mph64%30.13 "Hg10 mi
7:53 pm66 °FClear.6 mph39%30.11 "Hg10 mi
Weather by CustomWeather, © 2017

See weather overviewHow to use our weather pages